H1 CPF 2 NER 2024 3 2 9 062 01 glonass142 H2 2001801 9142 45358 2024 3 2 0 0 0 2024 3 5 23 45 0 900 1 1 0 0 0 1 H9 10 0 60371 0.00000 0 -16701079.638 7868572.842 -17588287.959 10 0 60371 900.00000 0 -18735461.929 7995099.097 -15341168.417 10 0 60371 1800.00000 0 -20460843.311 8247494.376 -12795804.897 10 0 60371 2700.00000 0 -21837683.406 8578746.523 -10001729.161 10 0 60371 3600.00000 0 -22838292.880 8936234.437 -7013290.188 10 0 60371 4500.00000 0 -23447827.342 9264149.444 -3888592.212 10 0 60371 5400.00000 0 -23664757.338 9506060.137 -688360.745 10 0 60371 6300.00000 0 -23500795.957 9607511.497 2525240.878 10 0 60371 7200.00000 0 -22980288.388 9518547.820 5689820.908 10 0 60371 8100.00000 0 -22139090.363 9196052.378 8743970.697 10 0 60371 9000.00000 0 -21022983.817 8605804.684 11628454.525 10 0 60371 9900.00000 0 -19685697.298 7724168.320 14287354.654 10 0 60371 10800.00000 0 -18186614.974 6539338.015 16669149.607 10 0 60371 11700.00000 0 -16588270.713 5052093.239 18727705.345 10 0 60371 12600.00000 0 -14953732.294 3276026.297 20423160.797 10 0 60371 13500.00000 0 -13343984.941 1237234.793 21722691.558 10 0 60371 14400.00000 0 -11815422.923 -1026509.538 22601137.923 10 0 60371 15300.00000 0 -10417553.206 -3467081.934 23041486.036 10 0 60371 16200.00000 0 -9191005.988 -6027761.980 23035193.627 10 0 60371 17100.00000 0 -8165934.137 -8645355.590 22582354.549 10 0 60371 18000.00000 0 -7360867.365 -11252594.990 21691699.127 10 0 60371 18900.00000 0 -6782068.188 -13780718.604 20380430.153 10 0 60371 19800.00000 0 -6423416.004 -16162125.196 18673897.173 10 0 60371 20700.00000 0 -6266823.830 -18332993.251 16605114.585 10 0 60371 21600.00000 0 -6283170.111 -20235757.699 14214131.870 10 0 60371 22500.00000 0 -6433706.631 -21821341.564 11547267.039 10 0 60371 23400.00000 0 -6671883.466 -23051049.771 8656217.131 10 0 60371 24300.00000 0 -6945514.356 -23898046.142 5597062.086 10 0 60371 25200.00000 0 -7199191.215 -24348351.564 2429180.657 10 0 60371 26100.00000 0 -7376845.676 -24401321.021 -785900.902 10 0 60371 27000.00000 0 -7424348.977 -24069579.065 -3985705.052 10 0 60371 27900.00000 0 -7292039.443 -23378415.834 -7108020.566 10 0 60371 28800.00000 0 -6937069.586 -22364668.747 -10092117.243 10 0 60371 29700.00000 0 -6325472.208 -21075136.701 -12879933.435 10 0 60371 30600.00000 0 -5433856.612 -19564593.475 -15417212.520 10 0 60371 31500.00000 0 -4250661.691 -17893484.127 -17654565.404 10 0 60371 32400.00000 0 -2776911.229 -16125401.472 -19548437.769 10 0 60371 33300.00000 0 -1026438.005 -14324449.151 -21061962.763 10 0 60371 34200.00000 0 974434.270 -12552602.419 -22165682.191 10 0 60371 35100.00000 0 3187739.188 -10867177.746 -22838122.061 10 0 60371 36000.00000 0 5565211.688 -9318517.471 -23066211.304 10 0 60371 36900.00000 0 8050072.535 -7947986.537 -22845535.609 10 0 60371 37800.00000 0 10579179.396 -6786364.937 -22180421.616 10 0 60371 38700.00000 0 13085455.190 -5852702.631 -21083850.002 10 0 60371 39600.00000 0 15500492.690 -5153684.116 -19577199.328 10 0 60371 40500.00000 0 17757226.942 -4683528.202 -17689825.787 10 0 60371 41400.00000 0 19792564.177 -4424425.949 -15458487.184 10 0 60371 42300.00000 0 21549857.606 -4347496.961 -12926622.555 10 0 60371 43200.00000 0 22981126.961 -4414222.350 -10143501.669 10 0 60371 44100.00000 0 24048929.364 -4578292.558 -7163261.262 10 0 60371 45000.00000 0 24727803.740 -4787790.740 -4043847.170 10 0 60371 45900.00000 0 25005229.051 -4987618.290 -845883.393 10 0 60371 46800.00000 0 24882057.033 -5122058.982 2368509.451 10 0 60371 47700.00000 0 24372402.318 -5137372.488 5536922.783 10 0 60371 48600.00000 0 23502995.648 -4984307.013 8597871.989 10 0 60371 49500.00000 0 22312028.343 -4620424.433 11491987.851 10 0 60371 50400.00000 0 20847537.463 -4012139.462 14163164.307 10 0 60371 51300.00000 0 19165400.087 -3136386.628 16559640.527 10 0 60371 52200.00000 0 17327021.138 -1981844.653 18634996.837 10 0 60371 53100.00000 0 15396811.672 -549666.483 20349045.882 10 0 60371 54000.00000 0 13439562.751 1146316.126 21668602.685 10 0 60371 54900.00000 0 11517823.981 3079922.703 22568119.668 10 0 60371 55800.00000 0 9689395.220 5213475.954 23030175.247 10 0 60371 56700.00000 0 8005034.949 7499141.079 23045807.366 10 0 60371 57600.00000 0 6506479.605 9880698.112 22614686.018 10 0 60371 58500.00000 0 5224855.266 12295675.029 21745121.654 10 0 60371 59400.00000 0 4179546.807 14677754.483 20453909.151 10 0 60371 60300.00000 0 3377570.817 16959355.614 18766009.877 10 0 60371 61200.00000 0 2813477.810 19074284.849 16714077.208 10 0 60371 62100.00000 0 2469787.352 20960346.458 14337833.703 10 0 60371 63000.00000 0 2317937.683 22561804.811 11683310.870 10 0 60371 63900.00000 0 2319709.837 23831595.983 8801965.257 10 0 60371 64800.00000 0 2429066.362 24733196.348 5749687.072 10 0 60371 65700.00000 0 2594327.096 25242069.579 2585719.879 10 0 60371 66600.00000 0 2760590.007 25346631.036 -628487.942 10 0 60371 67500.00000 0 2872294.445 25048688.218 -3830477.736 10 0 60371 68400.00000 0 2875817.717 24363338.039 -6957997.644 10 0 60371 69300.00000 0 2721994.226 23318324.682 -9950217.950 10 0 60371 70200.00000 0 2368449.414 21952884.457 -12748920.424 10 0 60371 71100.00000 0 1781648.394 20316125.877 -15299637.744 10 0 60371 72000.00000 0 938571.164 18465012.922 -17552720.064 10 0 60371 72900.00000 0 -172057.947 16462036.212 -19464307.343 10 0 60371 73800.00000 0 -1549040.062 14372670.017 -20997188.010 10 0 60371 74700.00000 0 -3178503.022 12262722.046 -22121526.941 10 0 60371 75600.00000 0 -5034243.890 10195687.280 -22815448.410 10 0 60371 76500.00000 0 -7078599.535 8230216.756 -23065462.709 10 0 60371 77400.00000 0 -9263809.788 6417807.201 -22866728.207 10 0 60371 78300.00000 0 -11533816.887 4800807.864 -22223143.921 10 0 60371 79200.00000 0 -13826426.524 3410827.351 -21147270.999 10 0 60371 80100.00000 0 -16075740.525 2267606.285 -19660084.776 10 0 60371 81000.00000 0 -18214759.711 1378401.897 -17790562.442 10 0 60371 81900.00000 0 -20178048.314 737908.948 -15575114.446 10 0 60371 82800.00000 0 -21904348.590 328718.824 -13056870.926 10 0 60371 83700.00000 0 -23339036.346 122295.845 -10284837.249 10 0 60371 84600.00000 0 -24436314.752 80428.074 -7312935.397 10 0 60371 85500.00000 0 -25161054.772 157089.852 -4198950.254 10 0 60372 0.00000 0 -25490205.477 300636.003 -1003402.022 10 0 60372 900.00000 0 -25413715.733 456233.804 2211634.541 10 0 60372 1800.00000 0 -24934928.955 568428.665 5383736.295 10 0 60372 2700.00000 0 -24070435.735 583734.503 8451345.199 10 0 60372 3600.00000 0 -22849390.812 453138.563 11354961.031 10 0 60372 4500.00000 0 -21312324.055 134414.550 14038291.815 10 0 60372 5400.00000 0 -19509495.870 -405853.742 16449339.626 10 0 60372 6300.00000 0 -17498866.221 -1190623.767 18541401.204 10 0 60372 7200.00000 0 -15343762.335 -2231190.043 20273964.662 10 0 60372 8100.00000 0 -13110342.227 -3526475.310 21613485.856 10 0 60372 9000.00000 0 -10864959.287 -5062847.194 22534030.350 10 0 60372 9900.00000 0 -8671536.859 -6814468.766 23017769.443 10 0 60372 10800.00000 0 -6589061.035 -8744169.247 23055321.503 10 0 60372 11700.00000 0 -4669294.688 -10804799.804 22645932.514 10 0 60372 12600.00000 0 -2954806.622 -12941019.223 21797492.568 10 0 60372 13500.00000 0 -1477396.553 -15091436.625 20526387.862 10 0 60372 14400.00000 0 -256980.434 -17191023.435 18857190.552 10 0 60372 15300.00000 0 699018.313 -19173695.515 16822191.729 10 0 60372 16200.00000 0 1395746.941 -20974958.956 14460785.534 10 0 60372 17100.00000 0 1850468.121 -22534509.981 11818715.295 10 0 60372 18000.00000 0 2091590.659 -23798680.805 8947195.207 10 0 60372 18900.00000 0 2157227.112 -24722629.191 5901923.724 10 0 60372 19800.00000 0 2093339.185 -25272179.765 2742007.084 10 0 60372 20700.00000 0 1951549.323 -25425239.241 -471186.453 10 0 60372 21600.00000 0 1786711.241 -25172725.228 -3675219.463 10 0 60372 22500.00000 0 1654342.649 -24518968.786 -6807801.885 10 0 60372 23400.00000 0 1608029.558 -23481572.627 -9808006.994 10 0 60372 24300.00000 0 1696913.026 -22090730.195 -12617462.550 10 0 60372 25200.00000 0 1963365.871 -20388033.661 -15181493.125 10 0 60372 26100.00000 0 2440958.947 -18424820.250 -17450190.674 10 0 60372 27000.00000 0 3152804.355 -16260126.100 -19379391.843 10 0 60372 27900.00000 0 4110346.992 -13958333.353 -20931542.540 10 0 60372 28800.00000 0 5312656.791 -11586609.140 -22076432.585 10 0 60372 29700.00000 0 6746252.743 -9212243.705 -22791786.019 10 0 60372 30600.00000 0 8385467.304 -6899999.023 -23063695.572 10 0 60372 31500.00000 0 10193336.815 -4709578.676 -22886892.938 10 0 60372 32400.00000 0 12122981.415 -2693324.387 -22264849.749 10 0 60372 33300.00000 0 14119417.195 -894234.921 -21209707.452 10 0 60372 34200.00000 0 16121725.059 655610.636 -19742037.629 10 0 60372 35100.00000 0 18065485.713 1936160.377 -17890437.564 10 0 60372 36000.00000 0 19885378.902 2939982.811 -15690969.078 10 0 60372 36900.00000 0 21517838.003 3672322.531 -13186451.749 10 0 60372 37800.00000 0 22903648.693 4150617.670 -10425624.492 10 0 60372 38700.00000 0 23990382.724 4403501.197 -7462192.098 10 0 60372 39600.00000 0 24734564.723 4469329.890 -4353775.716 10 0 60372 40500.00000 0 25103481.230 4394304.674 -1160788.115 10 0 60372 41400.00000 0 25076556.292 4230263.164 2054743.894 10 0 60372 42300.00000 0 24646236.239 4032238.974 5230386.487 10 0 60372 43200.00000 0 23818346.998 3855891.925 8304511.469 10 0 60372 44100.00000 0 22611909.520 3754918.518 11217490.735 10 0 60372 45000.00000 0 21058421.567 3778552.535 13912849.311 10 0 60372 45900.00000 0 19200636.450 3969261.497 16338354.816 10 0 60372 46800.00000 0 17090890.039 4360736.258 18447022.728 10 0 60372 47700.00000 0 14789046.055 4976258.359 20198018.629 10 0 60372 48600.00000 0 12360145.106 5827513.889 21557440.867 10 0 60372 49500.00000 0 9871854.867 6913903.810 22498969.429 10 0 60372 50400.00000 0 7391826.724 8222380.025 23004369.401 10 0 60372 51300.00000 0 4985067.676 9727814.710 23063840.064 10 0 60372 52200.00000 0 2711435.403 11393888.378 22676203.431 10 0 60372 53100.00000 0 623359.279 13174460.721 21848928.820 10 0 60372 54000.00000 0 -1236119.358 15015368.345 20597992.858 10 0 60372 54900.00000 0 -2834907.446 16856575.810 18947577.162 10 0 60372 55800.00000 0 -4152957.031 18634591.504 16929608.802 10 0 60372 56700.00000 0 -5182853.871 20285048.709 14583151.440 10 0 60372 57600.00000 0 -5929873.881 21745344.908 11953657.861 10 0 60372 58500.00000 0 -6411505.503 22957229.459 9092097.344 10 0 60372 59400.00000 0 -6656458.365 23869231.409 6053973.863 10 0 60372 60300.00000 0 -6703200.173 24438825.470 2898253.481 10 0 60372 61200.00000 0 -6598083.684 24634244.567 -313778.584 10 0 60372 62100.00000 0 -6393143.106 24435861.931 -3519709.077 10 0 60372 63000.00000 0 -6143653.462 23837083.485 -6657212.645 10 0 60372 63900.00000 0 -5905556.769 22844711.758 -9665268.386 10 0 60372 64800.00000 0 -5732864.792 21478765.016 -12485352.704 10 0 60372 65700.00000 0 -5675149.247 19771758.065 -15062584.516 10 0 60372 66600.00000 0 -5775226.763 17767474.151 -17346799.766 10 0 60372 67500.00000 0 -6067137.686 15519278.880 -19293533.700 10 0 60372 68400.00000 0 -6574505.372 13088046.304 -20864891.316 10 0 60372 69300.00000 0 -7309346.404 10539783.886 -22030288.678 10 0 60372 70200.00000 0 -8271383.027 7943055.519 -22767050.557 10 0 60372 71100.00000 0 -9447887.774 5366310.170 -23060852.729 10 0 60372 72000.00000 0 -10814067.646 2875227.590 -22906000.423 10 0 60372 72900.00000 0 -12333972.412 530191.594 -22305537.657 10 0 60372 73800.00000 0 -13961889.393 -1616004.147 -21271185.494 10 0 60372 74700.00000 0 -15644166.515 -3520122.698 -19823110.602 10 0 60372 75600.00000 0 -17321387.312 -5150041.671 -17989528.757 10 0 60372 76500.00000 0 -18930806.659 -6485838.387 -15806151.161 10 0 60372 77400.00000 0 -20408944.914 -7520358.389 -13315484.530 10 0 60372 78300.00000 0 -21694231.421 -8259245.149 -10565998.788 10 0 60372 79200.00000 0 -22729586.193 -8720431.527 -7611178.855 10 0 60372 80100.00000 0 -23464831.133 -8933116.164 -4508479.374 10 0 60372 81000.00000 0 -23858829.360 -8936269.752 -1318203.169 10 0 60372 81900.00000 0 -23881262.753 -8776735.816 1897674.287 10 0 60372 82800.00000 0 -23513973.084 -8507007.669 5076711.007 10 0 60372 83700.00000 0 -22751810.614 -8182776.624 8157211.406 10 0 60372 84600.00000 0 -21602954.830 -7860355.948 11079422.206 10 0 60372 85500.00000 0 -20088694.142 -7594089.952 13786688.006 10 0 60373 0.00000 0 -18242674.239 -7433857.905 16226544.141 10 0 60373 900.00000 0 -16109645.622 -7422778.030 18351727.378 10 0 60373 1800.00000 0 -13743765.130 -7595208.422 20121082.289 10 0 60373 2700.00000 0 -11206518.714 -7975128.519 21500351.052 10 0 60373 3600.00000 0 -8564353.776 -8574969.276 22462828.978 10 0 60373 4500.00000 0 -5886117.758 -9394941.046 22989875.368 10 0 60373 5400.00000 0 -3240408.468 -10422887.603 23071270.409 10 0 60373 6300.00000 0 -692944.816 -11634672.963 22705411.741 10 0 60373 7200.00000 0 1695934.279 -12995085.589 21899347.150 10 0 60373 8100.00000 0 3873540.397 -14459223.250 20668642.645 10 0 60373 9000.00000 0 5796782.589 -15974301.815 19037088.006 10 0 60373 9900.00000 0 7433711.012 -17481813.614 17036244.759 10 0 60373 10800.00000 0 8764593.932 -18919946.210 14704844.349 10 0 60373 11700.00000 0 9782483.953 -20226161.356 12088047.095 10 0 60373 12600.00000 0 10493250.273 -21339826.619 9236575.237 10 0 60373 13500.00000 0 10915076.115 -22204789.671 6205735.983 10 0 60373 14400.00000 0 11077442.654 -22771787.007 3054352.806 10 0 60373 15300.00000 0 11019642.414 -23000585.256 -156374.612 10 0 60373 16200.00000 0 10788885.101 -22861764.225 -3364059.732 10 0 60373 17100.00000 0 10438076.131 -22338065.366 -6506344.454 10 0 60373 18000.00000 0 10023362.249 -21425247.593 -9522116.209 10 0 60373 18900.00000 0 9601548.742 -20132413.125 -12352702.504 10 0 60373 19800.00000 0 9227498.278 -18481788.284 -14943018.977 10 0 60373 20700.00000 0 8951622.315 -16507967.315 -17242647.801 10 0 60373 21600.00000 0 8817572.164 -14256649.926 -19206824.878 10 0 60373 22500.00000 0 8860228.257 -11782924.708 -20797316.100 10 0 60373 23400.00000 0 9104073.550 -9149169.783 -21983165.271 10 0 60373 24300.00000 0 9562020.528 -6422658.064 -22741299.013 10 0 60373 25200.00000 0 10234742.073 -3672966.865 -23056976.872 10 0 60373 26100.00000 0 11110534.994 -969299.724 -22924077.922 10 0 60373 27000.00000 0 12165722.446 1622168.148 -22345218.482 10 0 60373 27900.00000 0 13365578.677 4040810.560 -21331698.777 10 0 60373 28800.00000 0 14665737.374 6233832.594 -19903279.762 10 0 60373 29700.00000 0 16014024.462 8158220.022 -18087794.590 10 0 60373 30600.00000 0 17352638.231 9782275.548 -15920602.414 10 0 60373 31500.00000 0 18620584.910 11086678.882 -13443895.347 10 0 60373 32400.00000 0 19756266.991 12065027.812 -10705872.282 10 0 60373 33300.00000 0 20700115.119 12723839.255 -7759795.922 10 0 60373 34200.00000 0 21397152.440 13082012.025 -4662951.799 10 0 60373 35100.00000 0 21799383.231 13169775.755 -1475529.970 10 0 60373 36000.00000 0 21867905.048 13027171.987 1740548.386 10 0 60373 36900.00000 0 21574655.412 12702133.092 4922836.122 10 0 60373 37800.00000 0 20903719.523 12248241.447 8009573.229 10 0 60373 38700.00000 0 19852144.108 11722264.517 10940884.088 10 0 60373 39600.00000 0 18430223.302 11181570.646 13659935.530 10 0 60373 40500.00000 0 16661244.636 10681534.963 16114033.452 10 0 60373 41400.00000 0 14580705.724 10273044.885 18255637.205 10 0 60373 42300.00000 0 12235034.197 10000210.124 20043272.727 10 0 60373 43200.00000 0 9679863.897 9898373.246 21442327.641 10 0 60373 44100.00000 0 6977938.446 9992503.984 22425713.877 10 0 60373 45000.00000 0 4196728.511 10296044.437 22974385.902 10 0 60373 45900.00000 0 1405860.593 10810253.385 23077705.361 10 0 60373 46800.00000 0 -1325537.315 11524077.289 22733645.639 10 0 60373 47700.00000 0 -3931464.462 12414553.740 21948832.642 10 0 60373 48600.00000 0 -6351542.913 13447731.081 20738420.928 10 0 60373 49500.00000 0 -8533277.766 14580066.611 19125807.135 10 0 60373 50400.00000 0 -10433989.354 15760245.789 17142185.502 10 0 60373 51300.00000 0 -12022338.069 16931347.280 14825953.154 10 0 60373 52200.00000 0 -13279379.115 18033264.001 12221975.547 10 0 60373 53100.00000 0 -14199103.688 19005279.248 9380725.297 10 0 60373 54000.00000 0 -14788444.340 19788690.097 6357310.146 10 0 60373 54900.00000 0 -15066744.522 20329367.688 3210408.207 10 0 60373 55800.00000 0 -15064714.906 20580146.377 1130.832 10 0 60373 56700.00000 0 -14822920.476 20502940.210 -3208164.933 10 0 60373 57600.00000 0 -14389862.380 20070496.356 -6355090.989 10 0 60373 58500.00000 0 -13819736.063 19267710.344 -9378445.776 10 0 60373 59400.00000 0 -13169960.797 18092446.162 -12219410.479 10 0 60373 60300.00000 0 -12498585.738 16555825.160 -14822699.853 10 0 60373 61200.00000 0 -11861682.891 14681970.204 -17137644.499 10 0 60373 62100.00000 0 -11310837.951 12507214.459 -19119182.915 10 0 60373 63000.00000 0 -10890845.838 10078806.890 -20728743.536 10 0 60373 63900.00000 0 -10637708.974 7453167.844 -21934999.241 10 0 60373 64800.00000 0 -10577023.423 4693766.974 -22714479.503 10 0 60373 65700.00000 0 -10722821.452 1868711.621 -23052028.266 10 0 60373 66600.00000 0 -11076919.695 -951854.089 -22941098.692 10 0 60373 67500.00000 0 -11628800.564 -3698431.368 -22383879.214 10 0 60373 68400.00000 0 -12356032.014 -6304818.728 -21391248.589 10 0 60373 69300.00000 0 -13225207.923 -8710623.699 -19982560.983 10 0 60373 70200.00000 0 -14193369.325 -10863530.259 -18185265.419 10 0 60373 71100.00000 0 -15209846.398 -12721228.192 -16034367.115 10 0 60373 72000.00000 0 -16218443.262 -14252924.826 -13571741.380 10 0 60373 72900.00000 0 -17159873.128 -15440377.202 -10845313.632 10 0 60373 73800.00000 0 -17974340.744 -16278402.934 -7908121.762 10 0 60373 74700.00000 0 -18604162.789 -16774849.922 -4817279.501 10 0 60373 75600.00000 0 -18996315.352 -16950027.949 -1632861.394 10 0 60373 76500.00000 0 -19104800.705 -16835627.782 1583268.433 10 0 60373 77400.00000 0 -18892733.344 -16473174.963 4768660.441 10 0 60373 78300.00000 0 -18334057.228 -15912084.918 7861492.954 10 0 60373 79200.00000 0 -17414821.803 -15207402.607 10801770.726 10 0 60373 80100.00000 0 -16133963.091 -14417322.927 13532485.440 10 0 60373 81000.00000 0 -14503556.952 -13600596.916 16000715.807 10 0 60373 81900.00000 0 -12548533.713 -12813933.208 18158646.421 10 0 60373 82800.00000 0 -10305865.814 -12109503.984 19964486.248 10 0 60373 83700.00000 0 -7823261.869 -11532659.890 21383269.871 10 0 60373 84600.00000 0 -5157420.834 -11119949.350 22387526.915 10 0 60373 85500.00000 0 -2371917.969 -10897524.805 22957807.633 10 0 60374 0.00000 0 465190.510 -10880002.168 23083055.312 10 0 60374 900.00000 0 3283947.587 -11069820.915 22760818.855 10 0 60374 1800.00000 0 6015151.018 -11457131.543 21997301.629 10 0 60374 2700.00000 0 8592980.764 -12020215.162 20807245.781 10 0 60374 3600.00000 0 10957486.910 -12726418.223 19213653.546 10 0 60374 4500.00000 0 13056837.539 -13533563.772 17247350.360 10 0 60374 5400.00000 0 14849233.924 -14391780.858 14946397.246 10 0 60374 6300.00000 0 16304414.120 -15245676.074 12355362.773 10 0 60374 7200.00000 0 17404682.750 -16036756.669 9524467.656 10 0 60374 8100.00000 0 18145424.297 -16706003.721 6508617.659 10 0 60374 9000.00000 0 18535078.602 -17196487.142 3366342.844 10 0 60374 9900.00000 0 18594579.667 -17455912.066 158663.394 10 0 60374 10800.00000 0 18356281.419 -17438988.532 -3052096.036 10 0 60374 11700.00000 0 17862415.815 -17109523.554 -6203520.226 10 0 60374 12600.00000 0 17163148.408 -16442145.848 -9234321.402 10 0 60374 13500.00000 0 16314313.853 -15423588.998 -12085537.055 10 0 60374 14400.00000 0 15374927.529 -14053477.465 -14701683.489 10 0 60374 15300.00000 0 14404578.830 -12344580.572 -17031841.934 10 0 60374 16200.00000 0 13460816.853 -10322522.310 -19030655.431 10 0 60374 17100.00000 0 12596639.488 -8024957.724 -20659216.616 10 0 60374 18000.00000 0 11858192.414 -5500249.245 -21885828.769 10 0 60374 18900.00000 0 11282775.489 -2805697.375 -22686625.170 10 0 60374 19800.00000 0 10897240.883 -5398.919 -23046034.724 10 0 60374 20700.00000 0 10716850.564 2832178.433 -22957084.830 10 0 60374 21600.00000 0 10744641.220 5636804.486 -22421535.790 10 0 60374 22500.00000 0 10971323.166 8339169.634 -21449844.256 10 0 60374 23400.00000 0 11375717.168 10873531.222 -20060956.612 10 0 60374 24300.00000 0 11925710.295 13180213.410 -18281936.426 10 0 60374 25200.00000 0 12579690.032 15207856.884 -16147433.340 10 0 60374 26100.00000 0 13288395.560 16915325.287 -13699003.930 10 0 60374 27000.00000 0 13997107.509 18273189.655 -10984297.927 10 0 60374 27900.00000 0 14648083.126 19264729.967 -8056125.933 10 0 60374 28800.00000 0 15183133.454 19886413.168 -4971427.174 10 0 60374 29700.00000 0 15546233.127 20147829.139 -1790157.817 10 0 60374 30600.00000 0 15686052.076 20071088.912 1425878.049 10 0 60374 31500.00000 0 15558301.876 19689712.012 4614231.486 10 0 60374 32400.00000 0 15127797.406 19047051.283 7713022.075 10 0 60374 33300.00000 0 14370146.676 18194322.788 10662137.732 10 0 60374 34200.00000 0 13272997.466 17188324.781 13404397.575 10 0 60374 35100.00000 0 11836788.170 16088942.459 15886655.480 10 0 60374 36000.00000 0 10074971.050 14956543.750 18060823.374 10 0 60374 36900.00000 0 8013698.180 13849375.617 19884795.063 10 0 60374 37800.00000 0 5690982.624 12821069.801 21323253.599 10 0 60374 38700.00000 0 3155369.066 11918362.070 22348347.495 10 0 60374 39600.00000 0 464168.244 11179119.802 22940223.624 10 0 60374 40500.00000 0 -2318672.599 10630759.708 23087407.332 10 0 60374 41400.00000 0 -5124976.276 10289121.224 22787022.994 10 0 60374 42300.00000 0 -7884920.798 10157842.160 22044851.030 10 0 60374 43200.00000 0 -10529697.436 10228262.451 20875220.206 10 0 60374 44100.00000 0 -12994132.885 10479859.984 19300736.901 10 0 60374 45000.00000 0 -15219167.941 10881200.475 17351855.834 10 0 60374 45900.00000 0 -17154090.775 11391361.970 15066299.634 10 0 60374 46800.00000 0 -18758432.658 11961774.697 12488337.388 10 0 60374 47700.00000 0 -20003447.624 12538399.419 9667935.121 10 0 60374 48600.00000 0 -20873114.468 13064152.997 6659793.742 10 0 60374 49500.00000 0 -21364619.324 13481479.090 3522292.359 10 0 60374 50400.00000 0 -21488298.464 13734955.431 316357.152 10 0 60374 51300.00000 0 -21267043.591 13773827.047 -2895722.382 10 0 60374 52200.00000 0 -20735194.570 13554357.598 -6051506.565 10 0 60374 53100.00000 0 -19936966.164 13041898.216 -9089623.983 10 0 60374 54000.00000 0 -18924475.370 12212585.130 -11950970.867 10 0 60374 54900.00000 0 -17755452.758 11054592.724 -14579867.356 10 0 60374 55800.00000 0 -16490734.800 9568887.580 -16925147.397 10 0 60374 56700.00000 0 -15191643.445 7769450.069 -18941160.395 10 0 60374 57600.00000 0 -13917363.827 5682952.554 -20588664.701 10 0 60374 58500.00000 0 -12722431.124 3347906.316 -21835595.159 10 0 60374 59400.00000 0 -11654432.716 813311.753 -22657689.648 10 0 60374 60300.00000 0 -10752022.540 -1863132.730 -23038962.423 10 0 60374 61200.00000 0 -10043331.187 -4617189.067 -22972015.104 10 0 60374 62100.00000 0 -9544838.372 -7380515.691 -22458179.416 10 0 60374 63000.00000 0 -9260754.804 -10083280.396 -21507489.051 10 0 60374 63900.00000 0 -9182938.864 -12656841.396 -20138481.350 10 0 60374 64800.00000 0 -9291350.861 -15036385.189 -18377832.791 10 0 60374 65700.00000 0 -9555024.885 -17163411.674 -16259835.494 10 0 60374 66600.00000 0 -9933516.403 -18987963.307 -13825725.090 10 0 60374 67500.00000 0 -10378763.608 -20470505.859 -11122873.240 10 0 60374 68400.00000 0 -10837283.042 -21583382.969 -8203860.776 10 0 60374 69300.00000 0 -11252605.884 -22311784.615 -5125449.893 10 0 60374 70200.00000 0 -11567851.172 -22654190.115 -1947475.846 10 0 60374 71100.00000 0 -11728326.518 -22622268.418 1268319.810 10 0 60374 72000.00000 0 -11684045.821 -22240241.294 4459491.232 10 0 60374 72900.00000 0 -11392057.192 -21543737.591 7564101.724 10 0 60374 73800.00000 0 -10818482.463 -20578188.034 10521924.801 10 0 60374 74700.00000 0 -9940182.022 -19396829.151 13275609.404 10 0 60374 75600.00000 0 -8745974.646 -18058401.011 15771786.853 10 0 60374 76500.00000 0 -7237360.738 -16624635.945 17962098.519 10 0 60374 77400.00000 0 -5428718.270 -15157643.721 19804124.923 10 0 60374 78300.00000 0 -3346962.651 -13717302.541 21262199.151 10 0 60374 79200.00000 0 -1030683.953 -12358764.514 22308089.804 10 0 60374 80100.00000 0 1471203.520 -11130179.226 22921541.183 10 0 60374 81000.00000 0 4101244.330 -10070729.601 23090661.096 10 0 60374 81900.00000 0 6795584.978 -9209061.191 22812149.405 10 0 60374 82800.00000 0 9486389.451 -8562169.658 22091363.154 10 0 60374 83700.00000 0 12104428.545 -8134792.236 20942216.986 10 0 60374 84600.00000 0 14581737.000 -7919328.156 19386920.352 10 0 60374 85500.00000 0 16854229.391 -7896291.153 17455555.890 99